This demonstration page uses our WeatherBlox Daily Observations layout. Learn more.

Left ArrowRight Arrow

34.74481, -87.66753

Hourly Observations for April 11, 2015

Temp ( °F °C ) Dew Point ( °F °C ) Humidity (%) Winds ( mph kmh ) Pressure ( in mb ) Visibility ( mi km ) Precip ( " mm )
12:53 am 00:53 Clear 55 12.8 41 5 59 59 NNE 6 9 30.14 1021 10 16 0.00 0.00
1:53 am 01:53 Clear 53 11.7 40 4.4 61 61 ENE 5 7 30.15 1021 10 16 0.00 0.00
2:53 am 02:53 Clear 51 10.6 42 5.6 71 71 Calm 30.16 1021 10 16 0.00 0.00
3:53 am 03:53 Clear 47 8.3 41 5 80 80 Calm 30.16 1021 10 16 0.00 0.00
4:53 am 04:53 Clear 48 8.9 41 5 77 77 N 3 6 30.16 1021 10 16 0.00 0.00
5:53 am 05:53 Clear 46 7.8 41 5 83 83 Calm 30.18 1022 10 16 0.00 0.00
6:53 am 06:53 Sunny 47 8.3 42 5.6 83 83 Calm 30.21 1023 10 16 0.00 0.00
7:53 am 07:53 Sunny 53 11.7 46 7.8 77 77 NNE 5 7 30.23 1024 10 16 0.00 0.00
8:53 am 08:53 Sunny 56 13.3 43 6.1 62 62 ENE 5 7 30.23 1024 10 16 0.00 0.00
9:53 am 09:53 Sunny 62 16.7 42 5.6 48 48 VRB 5 7 30.23 1024 10 16 0.00 0.00
10:53 am 10:53 Sunny 66 18.9 42 5.6 42 42 ENE 10 17 30.22 1023 10 16 0.00 0.00
11:53 am 11:53 Sunny 66 18.9 41 5 40 40 E 9 15 30.21 1023 10 16 0.00 0.00
12:53 pm 12:53 Sunny 69 20.6 40 4.4 35 35 VRB 3 6 30.20 1023 10 16 0.00 0.00
1:53 pm 13:53 Sunny 72 22.2 42 5.6 34 34 VRB 6 9 30.18 1022 10 16 0.00 0.00
2:53 pm 14:53 Sunny 73 22.8 42 5.6 33 33 ENE 7 11 30.16 1021 10 16 0.00 0.00
3:53 pm 15:53 Sunny 73 22.8 43 6.1 34 34 E 10 17 30.14 1021 10 16 0.00 0.00
4:53 pm 16:53 Sunny 74 23.3 44 6.7 34 34 VRB 6 9 30.13 1020 10 16 0.00 0.00
5:53 pm 17:53 Sunny 71 21.7 41 5 34 34 ENE 8 13 30.11 1020 10 16 0.00 0.00
6:53 pm 18:53 Sunny 69 20.6 40 4.4 35 35 ENE 5 7 30.11 1020 10 16 0.00 0.00
7:53 pm 19:53 Clear 61 16.1 42 5.6 50 50 ENE 3 6 30.12 1020 10 16 0.00 0.00
8:53 pm 20:53 Clear 56 13.3 46 7.8 70 70 Calm 30.14 1021 10 16 0.00 0.00
9:53 pm 21:53 Clear 56 13.3 44 6.7 65 65 Calm 30.14 1021 10 16 0.00 0.00
10:53 pm 22:53 Clear 52 11.1 47 8.3 83 83 Calm 30.14 1021 10 16 0.00 0.00
11:53 pm 23:53 Clear 52 11.1 45 7.2 77 77 Calm 30.12 1020 10 16 0.00 0.00

Powered by AerisWeather